Kirksville, MO

1:40 AM CST on December 11, 2016 (GMT -0600)
Kirksville Regional

Weather History for KIRK - October, 2011

Change the Weather History Date:

Monday, October 10, 2011

  Actual Average Record
Temperature  
Mean Temperature 63 °F 55 °F  
Max Temperature 76 °F 66 °F 90 °F (1963)
Min Temperature 49 °F 44 °F 24 °F (1964)
Degree Days  
Heating Degree Days 2 10  
Month to date heating degree days 40 91  
Since 1 July heating degree days 191 198  
Cooling Degree Days 0 1  
Month to date cooling degree days 14 10  
Year to date cooling degree days 1193 937  
Growing Degree Days 12 (Base 50)    
Moisture  
Dew Point 51 °F    
Average Humidity 66    
Maximum Humidity 86    
Minimum Humidity 46    
Precipitation  
Precipitation 0.00 in 0.11 in 1.73 in (1969)
Month to date precipitation 0.00 1.09  
Year to date precipitation 28.17 32.61  
Sea Level Pressure  
Sea Level Pressure 30.07 in    
Wind  
Wind Speed 5 mph (SSE)    
Max Wind Speed 12 mph    
Max Gust Speed 16 mph    
Visibility 10 miles    
Events      
T = Trace of Precipitation, MM = Missing Value Source: NWS Daily Summary

Daily Weather History Graph

Daily Weather History Graph

Search for Another Location

Airport or City:

Trip Planner

Search our weather history database for the weather conditions in past years. The results will help you decide how hot, cold, wet, or windy it might be!

Date:

Astronomy

Oct. 10, 2011 Rise Set
Actual Time 7:15 AM CDT 6:38 PM CDT
Civil Twilight 6:48 AM CDT 7:05 PM CDT
Nautical Twilight 6:16 AM CDT 7:37 PM CDT
Astronomical Twilight 5:45 AM CDT 8:08 PM CDT
Moon 5:42 PM CDT (10/10) 5:57 AM CDT (10/10)
Length of Visible Light 12h 17m
Length of Day
11h 23m
Waxing Gibbous, 98% of the Moon is Illuminated
Oct 10
Waxing Gibbous
Oct 11
Full
Oct 19
Last Quarter
Oct 26
New
Nov 2
First Quarter

Hourly Weather History & Observations

Time (CDT) Temp. Dew Point Humidity Pressure Visibility Wind Dir Wind Speed Gust Speed Precip Events Conditions
12:55 AM 55.0 °F 46.9 °F 74% 30.14 in 10.0 mi SSE 6.9 mph - N/A   Clear
1:55 AM 53.6 °F 46.4 °F 77% 30.14 in 10.0 mi SE 6.9 mph - N/A   Clear
2:55 AM 52.0 °F 46.0 °F 80% 30.13 in 10.0 mi SE 3.5 mph - N/A   Clear
3:55 AM 53.1 °F 45.0 °F 74% 30.12 in 10.0 mi ESE 4.6 mph - N/A   Clear
4:55 AM 48.9 °F 45.0 °F 86% 30.12 in 10.0 mi Calm Calm - N/A   Clear
5:55 AM 52.0 °F 46.0 °F 80% 30.12 in 10.0 mi ESE 3.5 mph - N/A   Clear
6:55 AM 52.0 °F 46.9 °F 83% 30.12 in 10.0 mi SE 3.5 mph - N/A   Clear
7:55 AM 53.6 °F 48.2 °F 82% 30.12 in 10.0 mi SE 4.6 mph - N/A   Clear
8:55 AM 60.1 °F 48.0 °F 64% 30.13 in 10.0 mi SE 9.2 mph - N/A   Clear
9:55 AM 66.9 °F 51.1 °F 57% 30.12 in 10.0 mi South 9.2 mph - N/A   Clear
10:55 AM 69.8 °F 53.6 °F 56% 30.11 in 10.0 mi SSW 6.9 mph - N/A   Mostly Cloudy
11:55 AM 69.8 °F 53.6 °F 56% 30.10 in 10.0 mi South 6.9 mph - N/A   Scattered Clouds
12:55 PM 73.0 °F 54.0 °F 51% 30.08 in 10.0 mi SE 5.8 mph - N/A   Clear
1:55 PM 75.0 °F 54.0 °F 48% 30.05 in 10.0 mi SSE 10.4 mph - N/A   Partly Cloudy
2:55 PM 73.4 °F 53.6 °F 50% 30.03 in 10.0 mi SSW 10.4 mph - N/A   Overcast
3:55 PM 73.9 °F 54.0 °F 50% 30.03 in 10.0 mi SSW 8.1 mph - N/A   Partly Cloudy
4:55 PM 73.4 °F 53.6 °F 50% 30.01 in 10.0 mi South 5.8 mph - N/A   Partly Cloudy
5:55 PM 71.1 °F 54.0 °F 55% 30.01 in 10.0 mi SW 4.6 mph - N/A   Overcast
6:55 PM 68.0 °F 53.6 °F 60% 30.01 in 10.0 mi Calm Calm - N/A   Overcast
7:55 PM 66.0 °F 55.0 °F 68% 30.01 in 10.0 mi West 3.5 mph - N/A   Overcast
8:55 PM 63.0 °F 55.9 °F 78% 30.01 in 10.0 mi Calm Calm - N/A   Mostly Cloudy
9:55 PM 63.0 °F 55.9 °F 78% 30.01 in 10.0 mi ESE 3.5 mph - N/A   Overcast
10:55 PM 61.0 °F 55.9 °F 83% 30.01 in 10.0 mi Calm Calm - N/A   Overcast
11:55 PM 60.1 °F 55.0 °F 83% 30.01 in 10.0 mi Calm Calm - N/A   Mostly Cloudy